This demonstration page uses our WeatherBlox Daily Observations layout. Learn more.

38.89511, -77.03637

Hourly Observations for January 7, 2016

Temp ( °F °C ) Dew Point ( °F °C ) Humidity (%) Winds ( mph kmh ) Pressure ( in mb ) Visibility ( mi km ) Precip ( " mm )
12:52 am 00:52 Mostly Cloudy 35 1.7 26 -3.3 70 70 Calm 30.39 1029 10 16.0934 0 0
1:52 am 01:52 Cloudy 34 1.1 27 -2.8 76 76 NE 3 6 30.39 1029 10 16.0934 0 0
2:52 am 02:52 Cloudy 35 1.7 27 -2.8 72 72 NE 3 6 30.39 1029 10 16.0934 0 0
3:14 am 03:14 Cloudy 36 2 28 -2 75 75 Calm 30.39 1029 10 16.0934 0 0
3:52 am 03:52 Cloudy 35 1.7 28 -2.2 76 76 Calm 30.37 1028 10 16.0934 0 0
4:52 am 04:52 Cloudy 36 2.2 28 -2.2 73 73 ENE 3 6 30.36 1028 10 16.0934 0 0
5:23 am 05:23 Cloudy 36 2.2 29 -1.7 76 76 Calm 30.36 1028 10 16.0934 0 0
5:52 am 05:52 Cloudy 37 2.8 28 -2.2 70 70 Calm 30.35 1028 10 16.0934 0 0
6:08 am 06:08 Cloudy 37 3 28 -2 70 70 Calm 30.36 1028 10 16.0934 0 0
6:52 am 06:52 Cloudy 37 2.8 29 -1.7 73 73 Calm 30.34 1028 10 16.0934 0 0
7:05 am 07:05 Cloudy 36 2.2 29 -1.7 76 76 NE 5 7 30.36 1028 10 16.0934 0 0
7:52 am 07:52 Cloudy 37 2.8 29 -1.7 73 73 ENE 5 7 30.35 1028 10 16.0934 0 0
8:52 am 08:52 Cloudy 39 3.9 31 -0.6 73 73 Calm 30.35 1028 10 16.0934 0 0
9:23 am 09:23 Cloudy 38 3.3 34 1.1 86 86 SE 3 6 30.36 1028 10 16.0934 0 0
9:52 am 09:52 Cloudy with Mist and Fog 38 3.3 34 1.1 86 86 Calm 30.35 1028 6 9.65604 0 0
10:05 am 10:05 Cloudy 38 3.3 34 1.1 86 86 Calm 30.36 1028 10 16.0934 0 0
10:52 am 10:52 Cloudy 39 3.9 34 1.1 82 82 Calm 30.33 1027 7 11.26538 0 0
11:00 am 11:00 Cloudy 39 4 34 1 81 81 NNE 3 6 30.33 1027 7 11.26538 0 0
11:52 am 11:52 Cloudy 40 4.4 35 1.7 83 83 Calm 30.29 1026 8 12.87472 0 0
12:52 pm 12:52 Cloudy 41 5 36 2.2 82 82 NE 5 7 30.26 1025 7 11.26538 0 0
1:52 pm 13:52 Cloudy with Haze 41 5 36 2.2 82 82 Calm 30.25 1024 4 6.43736 0 0
2:52 pm 14:52 Cloudy with Haze 42 5.6 37 2.8 82 82 Calm 30.24 1024 5 8.0467 0 0
3:32 pm 15:32 Cloudy with Haze 43 6 37 3 81 81 NNE 3 6 30.24 1024 6 9.65604 0 0
3:52 pm 15:52 Cloudy 42 5.6 37 2.8 82 82 Calm 30.24 1024 7 11.26538 0 0
4:52 pm 16:52 Cloudy 43 6.1 37 2.8 80 80 NE 5 7 30.24 1024 7 11.26538 0 0
5:14 pm 17:14 Cloudy 43 6 37 3 81 81 NNE 3 6 30.24 1024 8 12.87472 0 0
5:52 pm 17:52 Cloudy 43 6.1 37 2.8 80 80 ENE 6 9 30.24 1024 10 16.0934 0 0
6:52 pm 18:52 Cloudy 42 5.6 38 3.3 85 85 ENE 5 7 30.23 1024 9 14.48406 0 0
7:52 pm 19:52 Cloudy 42 5.6 38 3.3 85 85 E 5 7 30.24 1024 7 11.26538 0 0
8:52 pm 20:52 Cloudy 41 5 38 3.3 89 89 NE 5 7 30.23 1024 8 12.87472 0 0
9:52 pm 21:52 Cloudy with Mist and Fog 41 5 37 2.8 86 86 ENE 10 17 30.2 1023 6 9.65604 0 0
10:52 pm 22:52 Cloudy 40 4.4 37 2.8 89 89 NE 5 7 30.18 1022 8 12.87472 0 0
10:59 pm 22:59 Cloudy with Mist and Fog 40 4.4 37 2.8 89 89 NE 6 9 30.18 1022 6 9.65604 0 0
11:26 pm 23:26 Cloudy with Mist and Fog 39 4 37 3 93 93 ENE 5 7 30.18 1022 4 6.43736 0 0
11:52 pm 23:52 Cloudy with Mist and Fog 40 4.4 37 2.8 89 89 NNW 3 6 30.19 1022 4 6.43736 0 0

Powered by AerisWeather